Accueil
METAR-TAF:

METAR-TAF

Aéroports :

Aéroport de Valence-Chabeuil

Valence, France

latitude: 44-54-58N, longitude: 4-58-06E, altitude: 160 m

Observation

Le bulletin a été fait il y a 19 minutes, à 10:00 UTC
Vent 13 kt de nord-est, variant entre nord/nord-est et est
Température 15°C
Humidité 72%
Pression 1011 hPa
Visibilité 10 km ou plus
Nuages épars à une hauteur de 2500 ft
Nuages fragmentés à une hauteur de 8800 ft

METAR: LFLU 141000Z AUTO 05013KT 020V080 9999 SCT025 BKN088 15/10 Q1011

Heure: 12:19 (10:19 UTC)


TAF: absent

Observations et prévisions météorologiques de plus de 4000 aéroports (messages METAR et TAF).

Les stations disponibles sont représentées par des disques jaunes et rouges sur la carte.

Passer la souris dessus pour voir le nom de la station.

Cliquer dessus pour voir les observations et prévisions météorologiques.

Pour changer de carte: cliquez sur les boutons verts avec une croix noire pour zoomer, sur le bouton vert avec un tiret pour effectuer un zoom arrière, ou sur les flèches vertes pour les cartes adjacentes.


METAR-TAF: